Flag for Norway Weather past 2 weeks in Brønnøysund, Norway

Now
50 °F

Clear.


Feels Like: 49 °F
Forecast: 52 / 59 °F
Wind: 3 mph from North

Location: Bronnoysund / Bronnoy

Current Time: Sep 17, 2014 at 10:13:07 PM

Latest Report: Sep 17, 2014 at 9:20 PM


Visibility: 10 mi

Pressure: 30.21 "Hg

Humidity: 94%

Dew point: 48 °F

Location of BrønnøysundLocation

Historic Weather in Brønnøysund — Graph

°F

Brønnøysund temperature yesterday

Maximum temperature yesterday: 64 °F (at 2:20 PM)
Minimum temperature yesterday: 46 °F (at 5:50 AM)
Average temperature yesterday: 56 °F

Past Weeks' High & Low Weather Summary

 TemperatureHumidityPressure
High70 °F (Sep 8, 11:50 AM)100% (Sep 3, 11:20 AM)30.51 "Hg (Sep 3, 11:20 AM)
Low43 °F (Sep 15, 5:50 AM)42% (Sep 15, 3:50 PM)29.83 "Hg (Sep 8, 7:20 PM)
Average56 °F83%30.17 "Hg
* Reported Sep 2 8:50 PM — Sep 17 8:50 PM, Brønnøysund, Weather by CustomWeather, © 2014

Note: Actual official high and low records may vary slightly from our data, if they occured in-between our weather recording intervals... More about our weather records

Advertising

Brønnøysund weather history for previous 24 hours

 ConditionsComfort  
Time TempWeatherWind HumidityBarometerVisibility
8:50 PM
Sep 17
50 °FClear.5 mph94%30.21 "Hg10 mi
8:20 PM52 °FSunny.8 mph88%30.21 "Hg10 mi
7:50 PM52 °FSunny.9 mph88%30.21 "Hg10 mi
7:20 PM54 °FSunny.10 mph82%30.21 "Hg10 mi
6:50 PM54 °FSunny.10 mph82%30.21 "Hg10 mi
6:20 PM54 °FSunny.12 mph77%30.24 "Hg10 mi
5:50 PM55 °FSunny.13 mph72%30.24 "Hg10 mi
5:20 PM57 °FPassing clouds.12 mph77%30.24 "HgN/A
4:50 PM55 °FSunny.12 mph72%30.24 "Hg10 mi
4:20 PM55 °FSunny.13 mph72%30.24 "Hg10 mi
3:50 PM57 °FSunny.13 mph72%30.24 "Hg10 mi
2:50 PM55 °FPassing clouds.13 mph82%30.27 "HgN/A
1:50 PM55 °FPassing clouds.12 mph77%30.27 "HgN/A
12:50 PM54 °FPassing clouds.10 mph82%30.27 "HgN/A
11:50 AM54 °FPassing clouds.8 mph82%30.27 "HgN/A
10:50 AM54 °FPassing clouds.7 mph88%30.27 "HgN/A
10:20 AM52 °FPassing clouds.7 mph94%30.27 "HgN/A
9:50 AM54 °FFog.3 mph94%30.27 "HgN/A
8:50 AM50 °FFog.6 mph94%30.27 "HgN/A
7:50 AM46 °FSnow. Fog.5 mph100%30.27 "Hg1 mi
7:20 AM48 °FFog.6 mph94%30.27 "Hg1 mi
6:50 AM46 °FFog.6 mph100%30.27 "Hg0 mi
6:20 AM48 °FFog.3 mph100%30.27 "Hg1 mi
5:50 AM46 °FFog.2 mph100%30.27 "Hg2 mi
Weather by CustomWeather, © 2014

See weather overviewHow to use our weather pages